Regional Weather Roundup
Issued by NWS

Home | Current Version | Previous Version | Text Only | Print | Product List | Glossary On
Versions: 1 2 3 4 5 6 7 8 9 10 11 12 13 14 15 16 17 18 19 20 21 22 23 24 25 26 27 28 29 30 31 32 33 34 35 36 37 38 39 40 41 42 43 44 45 46 47 48 49 50
000
ASUS44 KMEG 070110
RWRTN
TENNESSEE HOURLY STATE WEATHER ROUNDUP
NATIONAL WEATHER SERVICE MEMPHIS TN
700 PM CST FRI MAR 06 2015

TNZ002-004-019-021-049-052-054-088>092-070200-
WEST TENNESSEE

CITY           SKY/WX    TMP DP  RH WIND       PRES   REMARKS
MEMPHIS INTL   CLEAR     33  16  49 SW3       30.50R
NWS MEMPHIS      N/A     31 N/A N/A MISG        N/A
JACKSON        CLEAR     29  13  51 CALM      30.48S
DYERSBURG      CLEAR     28   7  40 CALM      30.49S
UNION CITY     CLEAR     21  12  68 S6        30.45S WCI  14
PARIS          CLEAR     23   9  54 S5        30.45S WCI  17
LEXINGTON      CLEAR     30  12  47 CALM      30.46R
SAVANNAH       CLEAR     28  18  64 CALM      30.48R
$$

TNZ008-025-027-028-033-062-065-066-070200-
NORTH MIDDLE TENNESSEE

CITY           SKY/WX    TMP DP  RH WIND       PRES   REMARKS
NASHVILLE      CLEAR     31  17  56 CALM      30.47S
CLARKSVILLE    CLEAR     28  17  63 CALM      30.45S
SMYRNA         CLEAR     28  21  75 CALM      30.48S
COOKEVILLE     CLEAR     28  23  80 CALM      30.44R
CROSSVILLE     CLEAR     29  14  53 W5        30.40R WCI  24
$$

TNZ061-075-076-078-094-096-097-070200-
SOUTH MIDDLE TENNESSEE

CITY           SKY/WX    TMP DP  RH WIND       PRES   REMARKS
FAYETTEVILLE   CLEAR     28  19  69 NE6         N/A  WCI  22
TULLAHOMA      CLEAR     28  19  69 CALM        N/A
WINCHESTER     CLEAR     30  19  64 NW3       30.46S
MCMINNVILLE    CLEAR     30  21  69 CALM      30.44S
COLUMBIA         N/A     30  21  69 SE3       30.44S
SHELBYVILLE    CLEAR     28  25  86 SE3       30.46F
$$

TNZ017-018-042-046-047-070200-
NORTHEAST TENNESSEE

CITY           SKY/WX    TMP DP  RH WIND       PRES   REMARKS
TRI CITIES     PTCLDY    29  15  56 SW6       30.40R WCI  23
ELIZABETHTON   CLEAR     27  19  74 CALM      30.39R
$$

TNZ012-013-036-069-073-074-070200-
CENTRAL EAST TENNESSEE

CITY           SKY/WX    TMP DP  RH WIND       PRES   REMARKS
KNOXVILLE      CLEAR     33  16  49 SW6       30.43R WCI  28
OAK RIDGE      CLEAR     34  19  54 S3        30.44R
GATLINBURG     CLEAR     30  19  64 CALM      30.42R
MORRISTOWN     CLEAR     34  18  51 NW3       30.41S
$$

TNZ083-085-099-070200-
SOUTHEAST TENNESSEE

CITY           SKY/WX    TMP DP  RH WIND       PRES   REMARKS
CHATTANOOGA    CLEAR     37  25  61 NW5       30.45R WCI  33
$$

SKY/WX REPORTED AS FAIR MEANS FEW OR NO CLOUDS BELOW
12 THOUSAND FEET.



USA.gov is the U.S. government's official web portal to all federal, state and local government web resources and services.